Le nostre stazioni meteo in Italia

Pubblicità
Il mio iltempo24.it
Preston, Moor Park, Gran Bretagna (99113): Temperatura & dewpoint: 04.04.2020 02:00:00 - 10.04.2020 02:00:00 (BST)Preston, Moor Park, Gran Bretagna (99113): precipitazioni: 04.04.2020 02:00:00 - 10.04.2020 02:00:00 (BST)
Data & Tempo tt [°C] td [°C] rr [mm]
10.04.2020 02:00:00 8,6 6,4 0,0
10.04.2020 01:00:00 9,0 6,5 0,0
10.04.2020 00:00:00 9,4 6,7 0,0
09.04.2020 23:00:00 9,9 7,1 0,0
09.04.2020 22:00:00 10,9 7,3 0,0
09.04.2020 21:00:00 11,9 7,9 0,0
09.04.2020 20:00:00 13,0 8,0 0,0
09.04.2020 19:00:00 14,6 8,7 0,0
09.04.2020 18:00:00 15,5 8,8 0,0
09.04.2020 17:00:00 16,3 9,7 0,0
09.04.2020 16:00:00 15,7 8,8 0,0
09.04.2020 15:00:00 15,8 8,4 0,0
09.04.2020 14:00:00 15,4 8,9 0,0
09.04.2020 13:00:00 14,3 8,4 0,0
09.04.2020 12:00:00 12,9 8,0 0,0
09.04.2020 11:00:00 12,2 7,7 0,0
09.04.2020 10:00:00 11,7 8,1 0,0
09.04.2020 09:00:00 10,5 6,7 0,0
09.04.2020 08:00:00 9,5 5,8 0,0
09.04.2020 07:00:00 8,7 5,1 0,0
09.04.2020 06:00:00 8,0 5,2 0,0
09.04.2020 05:00:00 7,7 5,8 0,0
09.04.2020 04:00:00 6,6 5,1 0,0
09.04.2020 03:00:00 7,3 5,5 0,0
09.04.2020 02:00:00 7,1 5,6 0,0
09.04.2020 01:00:00 7,3 5,4 0,0
09.04.2020 00:00:00 7,7 4,8 0,0
08.04.2020 23:00:00 8,8 4,8 0,0
08.04.2020 22:00:00 9,9 4,8 0,0
08.04.2020 21:00:00 11,0 5,5 0,0
08.04.2020 20:00:00 13,2 5,3 0,0
08.04.2020 19:00:00 14,9 5,8 0,0
08.04.2020 18:00:00 15,9 6,7 0,0
08.04.2020 17:00:00 18,0 7,2 0,0
08.04.2020 16:00:00 18,0 7,2 0,0
08.04.2020 15:00:00 17,6 7,2 0,0
08.04.2020 14:00:00 17,1 6,6 0,0
08.04.2020 13:00:00 16,7 5,8 0,0
08.04.2020 12:00:00 16,1 5,7 0,0
08.04.2020 11:00:00 15,2 6,7 0,0
08.04.2020 10:00:00 14,2 6,4 0,0
08.04.2020 09:00:00 11,7 5,3 0,0
08.04.2020 08:00:00 8,5 4,7 0,0
08.04.2020 07:00:00 6,8 4,2 0,0
08.04.2020 06:00:00 6,7 3,8 0,0
08.04.2020 05:00:00 8,3 5,1 0,0
08.04.2020 04:00:00 7,4 3,9 0,0
08.04.2020 03:00:00 8,7 5,2 0,0
08.04.2020 02:00:00 8,0 4,8 0,0
08.04.2020 01:00:00 8,4 5,7 0,0
08.04.2020 00:00:00 8,1 5,2 0,0
07.04.2020 23:00:00 7,1 3,9 0,0
07.04.2020 22:00:00 8,9 3,8 0,0
07.04.2020 21:00:00 11,4 4,1 0,0
07.04.2020 20:00:00 13,8 4,9 0,0
07.04.2020 19:00:00 15,2 3,8 0,0
07.04.2020 18:00:00 16,0 4,2 0,0
07.04.2020 17:00:00 16,7 4,6 0,0
07.04.2020 16:00:00 16,2 4,0 0,0
07.04.2020 15:00:00 16,3 3,4 0,0
07.04.2020 14:00:00 14,9 1,3 0,0
07.04.2020 13:00:00 14,1 2,6 0,0
07.04.2020 12:00:00 13,2 3,5 0,0
07.04.2020 11:00:00 11,9 2,6 0,0
07.04.2020 10:00:00 10,0 4,1 0,0
07.04.2020 09:00:00 8,1 3,5 0,0
07.04.2020 08:00:00 5,5 3,0 0,0
07.04.2020 07:00:00 3,0 1,8 0,0
07.04.2020 06:00:00 2,4 1,2 0,0
07.04.2020 05:00:00 3,0 1,9 0,0
07.04.2020 04:00:00 2,6 1,4 0,0
07.04.2020 03:00:00 3,2 1,8 0,0
07.04.2020 02:00:00 4,8 1,3 0,0
07.04.2020 01:00:00 6,7 2,8 0,0
07.04.2020 00:00:00 6,7 3,0 0,0
06.04.2020 23:00:00 7,6 2,4 0,0
06.04.2020 22:00:00 8,3 2,8 0,0
06.04.2020 21:00:00 8,8 3,0 0,0
06.04.2020 20:00:00 10,2 3,6 0,0
06.04.2020 19:00:00 11,4 4,0 0,0
06.04.2020 18:00:00 12,0 3,1 0,0
06.04.2020 17:00:00 12,7 3,1 0,0
06.04.2020 16:00:00 12,8 3,3 0,0
06.04.2020 15:00:00 13,1 3,3 0,0
06.04.2020 14:00:00 13,0 3,2 0,0
06.04.2020 13:00:00 12,4 5,3 0,0
06.04.2020 12:00:00 12,5 6,5 0,0
06.04.2020 11:00:00 12,0 7,4 0,0
06.04.2020 10:00:00 11,0 6,6 0,0
06.04.2020 09:00:00 10,9 7,2 0,0
06.04.2020 08:00:00 9,8 7,1 0,0
06.04.2020 07:00:00 9,1 7,3 0,0
06.04.2020 06:00:00 10,2 7,9 0,0
06.04.2020 05:00:00 10,5 8,3 0,6
06.04.2020 04:00:00 10,5 9,2 2,0
06.04.2020 03:00:00 14,1 9,8 0,0
06.04.2020 02:00:00 15,2 8,3 0,0
06.04.2020 01:00:00 15,7 7,2 0,0
06.04.2020 00:00:00 16,2 6,8 0,0
05.04.2020 23:00:00 16,5 6,5 0,0
05.04.2020 22:00:00 16,3 6,6 0,0
05.04.2020 21:00:00 17,5 6,3 0,0
05.04.2020 20:00:00 18,6 6,0 0,0
05.04.2020 19:00:00 19,1 5,6 0,0
05.04.2020 18:00:00 18,9 5,1 0,0
05.04.2020 17:00:00 18,4 4,6 0,0
05.04.2020 16:00:00 18,5 3,6 0,0
05.04.2020 15:00:00 18,6 2,6 0,0
05.04.2020 14:00:00 17,6 3,0 0,0
05.04.2020 13:00:00 15,9 3,3 0,0
05.04.2020 12:00:00 15,1 3,1 0,0
05.04.2020 11:00:00 14,8 3,1 0,0
05.04.2020 10:00:00 13,5 3,3 0,0
05.04.2020 09:00:00 11,9 3,1 0,0
05.04.2020 08:00:00 10,2 3,0 0,0
05.04.2020 07:00:00 8,4 1,7 0,0
05.04.2020 06:00:00 9,5 2,0 0,0
05.04.2020 05:00:00 10,1 1,7 0,0
05.04.2020 04:00:00 10,2 1,3 0,0
05.04.2020 03:00:00 9,8 1,0 0,0
05.04.2020 02:00:00 10,0 1,4 0,0
05.04.2020 01:00:00 10,1 2,8 0,0
05.04.2020 00:00:00 10,4 3,3 0,0
04.04.2020 23:00:00 10,6 4,3 0,0
04.04.2020 22:00:00 11,0 4,7 0,0
04.04.2020 21:00:00 10,5 4,9 0,0
04.04.2020 20:00:00 12,0 5,3 0,0
04.04.2020 19:00:00 12,4 6,4 0,0
04.04.2020 18:00:00 12,5 6,6 0,0
04.04.2020 17:00:00 12,4 5,7 0,0
04.04.2020 16:00:00 12,4 6,1 0,0
04.04.2020 15:00:00 11,0 5,0 0,0
04.04.2020 14:00:00 10,7 3,4 0,0
04.04.2020 13:00:00 10,8 2,5 0,0
04.04.2020 12:00:00 10,9 5,4 0,0
04.04.2020 11:00:00 9,3 4,8 0,0
04.04.2020 10:00:00 8,3 4,7 0,0
04.04.2020 09:00:00 7,2 4,7 0,0
04.04.2020 08:00:00 6,4 4,1 0,0
04.04.2020 07:00:00 5,5 3,4 0,0
04.04.2020 06:00:00 6,0 3,7 0,0
04.04.2020 05:00:00 6,6 4,2 0,0
04.04.2020 04:00:00 7,6 4,8 0,0
04.04.2020 03:00:00 8,0 5,6 0,2
04.04.2020 02:00:00 8,0 5,5 0,0

tt = Temperatura
td = dewpoint
rr = precipitazioni

Stazioni seguenti

WeatherPro
AMSI
MeteoEarth